CAS-7B (44443 NORAD) Tracking and Keplerian Element Data

This shows tracking and keplerian element data for the satellite.

Feedback or suggestion? Click here.




ElementValue
Catalog44443
NameCAS-7B
Epoch Orbit184
Epoch Day217.68179789
Epoch Year2019
RAAN295.4156
Inclination42.7194
Eccentricity0.0012393
Argument of Perigee4.8471
Mean Anonmoly131.9425
Mean Motion16.24009227
Decay Rate0.10560506
L11 44443U 19043A 19217.68179789 .10560506 89749-5 36947-2 0 9997
L22 44443 42.7194 295.4156 0012393 4.8471 131.9425 16.24009227 1843



Live tracking and technical data element details for CAS-7B (NORAD 44443). CAS-7B can be tracked NOW for your location showing map with azimuth and elevation plus other details from your city location.







IsCatalogInMostPopularTable: catalog: 44443, numindb: 248
Update: records affected: 1



GetName: 44443 CAS-7B

Hit Count: updated at: Mon, 28 Nov 2022 04:48:14 GMT